Overview Statistics Trail Chart Weather Telemetry Raw packets
 

This is the latest recevied weather packets stored in our database for station/object KK7MLS-13. If no packets are shown the sender has not sent any weather packets the latest 10 day(s).

<< 94 95 96 97 98 99 100 >>
Time Temp. Humidity Pressure Rain* Wind** Luminosity Snow
1787974243 19.44° C 56% 1016 hPa 0 mm - 0 W/m² -
1787973937 20° C 56% 1015.9 hPa 0 mm - 0 W/m² -
1787973632 20° C 55% 1015.8 hPa 0 mm - 0 W/m² -
1787973327 20° C 56% 1015.7 hPa 0 mm - 0 W/m² -
1787973026 20° C 55% 1015.7 hPa 0 mm - 0 W/m² -
1787972722 20.56° C 54% 1015.8 hPa 0 mm - 1 W/m² -
1787972421 20.56° C 53% 1015.7 hPa 0 mm - 1 W/m² -
1787972120 20.56° C 53% 1015.7 hPa 0 mm - 2 W/m² -
1787971815 20.56° C 53% 1015.6 hPa 0 mm - 3 W/m² -
1787971511 21.11° C 53% 1015.6 hPa 0 mm - 5 W/m² -
1787971207 21.11° C 52% 1015.4 hPa 0 mm - 7 W/m² -
1787970906 21.67° C 52% 1015.6 hPa 0 mm - 9 W/m² -
1787970601 21.67° C 51% 1015.4 hPa 0 mm - 10 W/m² -
1787970296 21.67° C 51% 1015.2 hPa 0 mm - 11 W/m² -
1787969994 22.22° C 50% 1015.4 hPa 0 mm - 15 W/m² -
1787969694 22.22° C 51% 1015.5 hPa 0 mm - 19 W/m² -
1787969388 22.22° C 50% 1015.3 hPa 0 mm - 23 W/m² -
1787969087 22.22° C 50% 1015.3 hPa 0 mm - 24 W/m² -
1787968782 22.22° C 50% 1015.4 hPa 0 mm - 23 W/m² -
1787968482 22.78° C 51% 1015.4 hPa 0 mm - 24 W/m² -
1787968177 22.78° C 50% 1015.4 hPa 0 mm - 26 W/m² -
1787967876 22.78° C 50% 1015.6 hPa 0 mm - 30 W/m² -
1787967574 23.33° C 49% 1015.3 hPa 0 mm - 35 W/m² -
1787967268 23.33° C 47% 1015.6 hPa 0 mm - 34 W/m² -
1787966965 23.89° C 47% 1015.5 hPa 0 mm - 33 W/m² -

* Rain latest hour (hover to see other rain measurements)
** Current wind speed in m/s (hover to see current wind gust speed)